Location: Sternwarte ZA, Rosenfeld-Brittheim
(48.2889°N, 8.6789°E)
Time: 17:40:08
(UTC+02:00)

ISS - Pass Details

Date: 30 May 2020
Orbit: 417 x 420 km, 51.6° (Epoch: 26 May)

Event Time Altitude Azimuth Distance (km) Brightness Sun altitude
Rises 23:10:18 0° 287° (WNW) 2,367 0.9 -13.8°
Reaches altitude 10° 23:12:45 10° 270° (W) 1,499 -0.5 -14.0°
Maximum altitude 23:15:18 20° 221° (SW) 1,026 -2.0 -14.2°
Enters shadow 23:16:11 18° 198° (SSW) 1,092 -2.0 -14.3°
